Eastern Shore: Past 24 Hour Conditions

 

St. Anthony Airport

09:30 PM NDT 20 April 2014
This table is a summary of hourly weather conditions for the past 24 hours.
Date / Time
(NDT)
Wind(knots) Conditions Visibility(km) Pressure(kPa) Air tempC) Relative humidity(%) Dew pointC) Wind Chill
20 April 2014
21:30 ENE 3 Clear 16 101.7 -5 82 -8 -7
20:30 NE 10 Clear 16 101.7 -4 78 -7 -10
19:30 NE 11 Mainly Sunny 16 101.7 -3 79 -6 -9
18:30 NE 13 gust 18 Mainly Sunny 16 101.6 -2 75 -6 -9
17:30 W 13 Cloudy 16 101.6 0 56 -7 *
16:30 W 13 gust 18 Sunny 16 101.6 0 56 -8 -6
15:30 WNW 12 gust 17 Light Snow 16 101.6 -1 57 -8 -6
14:30 W 16 gust 21 Sunny 16 101.6 -1 61 -8 -8
13:30 WNW 10 gust 16 Sunny 16 101.6 -2 53 -10 -8
12:30 WNW 14 gust 19 Sunny 16 101.6 -3 53 -11 -10
11:30 NW 14 Sunny 16 101.6 -4 55 -11 -11
10:30 NW 20 Sunny 16 101.6 -4 62 -11 -13
9:30 NNW 15 Mainly Sunny 16 101.6 -5 71 -10 -13
8:30 NNW 17 Sunny 16 101.6 -6 76 -9 -14
7:30 NW 13 Sunny 16 101.6 -6 81 -9 -14
6:30 NW 11 Sunny 16 101.6 -7 81 -9 -14
5:30 NW 10 Clear 16 101.6 -7 86 -9 -13
4:30 NNW 10 Clear 16 101.6 -6 86 -8 -12
3:30 N 14 gust 22 Cloudy 16 101.5 -5 86 -7 -12
2:30 NNW 11 gust 18 Clear 16 101.5 -4 83 -7 -11
1:30 N 15 Cloudy 16 101.5 -3 82 -6 -10
0:30 N 18 gust 23 Light Snow 8 101.5 -3 87 -5 -11
19 April 2014
23:30 N 16 gust 24 Light Snow 16 101.5 -2 90 -4 -10
22:30 N 16 gust 23 Light Snow 5 101.5 -2 93 -3 -9
21:30 N 14 Light Snow 3 101.6 -2 94 -3 -8
 
Map of Atlantic - Newfoundland marine weather areas Southwestern Grand Banks - 44138 Banquereau - 44139 Tail of the Bank - 44140 Nickerson Bank - 44251 Northeast Burgeo Bank - 44255 Blanc-Sablon Airport Cap Whittle Chevery Natashquan Airport Heath Point Miscou Island Grand Étang Ingonish Beach North Mountain St.Paul Island J.A. Douglas McCurdy Sydney Airport Charlottetown Airport East Point North Cape Argentia Bonavista Burgeo Cape Race Corner Brook Daniel's Harbour Englee Ferolle Point La Scie Port aux Basques Rocky Harbour Sagona Island St. Anthony Airport St. John's Int'l Airport St. Lawrence Stephenville Airport Twillingate Winterland Wreckhouse Cartwright Airport Mary's Harbour Grates Cove Pool's Island Marticot Island Long Pond Îles de la Madeleine Airport
Legend: buoyBuoy land stationLand Station